Temperature
17 17 17 18 17 18 18 17 17 17 17 17 17 18 17 17 17 17 17 17 17 17 17 17 17 17 17 17 17 17 18 18 18 18 18 18 18 18 18 18 18 18 18
17 17 17 17 17 17 18 18 17 17 17 17 17 17 17 17 17 17 17 17 17 17 17 17 17 17 17 17 17 17 17 17 17 17 17 17 17 18 18 18 18 18 18
17 17 17 17 17 17 17 17 17 17 17 17 17 17 17 17 17 17 17 17 17 17 17 17 17 17 17 17 17 17 17 17 17 17 17 17 17 17 17 17 17 17 18
17 17 17 17 17 17 17 17 17 17 17 17 17 17 17 17 17 17 17 17 17 17 17 17 17 17 17 17 17 17 17 17 17 17 17 17 17 17 17 17 17 17 17
17 17 17 17 17 17 17 17 17 17 17 17 17 17 16 16 16 16 16 16 16 17 17 17 17 17 17 17 17 17 17 17 17 17 17 17 17 17 17 17 17 17 17
17 17 17 17 17 17 17 17 17 17 17 16 16 16 16 16 16 16 16 16 16 16 16 16 16 17 17 17 17 17 17 17 17 17 17 17 17 17 17 17 17 17 17
17 17 17 17 17 17 17 17 17 16 16 16 16 16 16 16 16 16 16 16 16 16 16 16 16 16 16 17 17 17 16 17 17 17 17 17 17 17 17 17 17 17 17
17 17 17 17 17 17 17 17 16 16 16 16 16 16 16 16 16 16 16 16 16 16 16 16 16 16 16 16 16 16 16 16 17 17 17 17 17 17 17 17 17 17 17
17 17 17 17 17 16 16 16 16 16 16 16 16 16 16 16 16 16 16 16 16 16 16 16 16 16 16 16 16 16 16 16 16 16 16 16 16 16 17 17 17 17 17
17 17 17 17 17 16 16 16 16 16 16 16 16 16 16 16 16 16 16 16 16 16 16 16 16 16 16 16 16 16 16 16 16 16 16 16 16 16 16 16 16 17 17
17 17 17 17 17 17 16 16 16 16 16 16 16 16 16 16 16 16 16 16 16 16 16 16 16 16 16 16 16 16 16 16 16 16 16 16 16 16 16 16 16 16 16
17 17 17 17 17 17 17 16 16 16 16 16 16 16 16 16 16 16 16 16 16 16 16 16 16 16 16 16 16 16 16 16 16 15 16 16 16 16 16 16 16 16 16
17 17 17 17 17 17 17 16 16 16 16 16 16 16 16 16 16 16 16 16 16 16 16 16 16 16 16 16 16 16 15 15 15 15 15 15 15 15 16 16 16 16 16
17 17 17 17 17 17 17 17 16 16 16 16 16 16 16 16 16 16 16 16 16 16 16 16 16 16 15 15 15 15 15 15 15 15 15 15 15 15 15 15 15 15 15
17 17 17 17 17 17 17 17 17 16 16 16 16 16 16 16 16 16 16 16 16 16 15 15 15 15 15 15 15 15 15 15 15 15 15 15 15 15 15 15 15 15 15
18 17 17 17 17 17 17 17 17 16 16 16 16 16 16 16 16 16 16 16 16 15 15 15 15 15 15 15 15 15 15 15 15 15 15 15 15 15 15 15 15 15 15
18 17 17 17 17 17 17 17 17 16 16 16 16 16 16 16 16 16 16 16 15 15 15 15 15 15 15 15 15 15 14 14 14 14 15 15 15 15 15 15 15 14 14
17 17 17 17 17 17 17 17 16 16 16 16 16 16 16 16 16 15 15 15 15 15 15 15 15 15 15 15 15 14 14 14 14 14 14 14 14 14 14 14 14 14 14
18 17 17 17 17 17 17 17 16 16 16 16 16 16 16 16 16 15 15 15 15 15 15 15 15 15 15 15 14 14 14 14 14 14 14 14 14 14 14 14 14 14 14
18 17 17 17 17 17 17 17 16 16 16 16 16 16 16 16 15 15 15 15 15 15 15 15 15 15 15 15 14 14 14 14 13 13 13 13 13 13 13 13 13 13 13
17 17 17 17 17 17 17 17 16 16 16 16 16 16 16 15 15 15 15 15 15 15 15 15 15 15 15 14 14 14 14 13 13 13 13 13 13 13 13 13 13 13 13
17 17 17 17 17 17 17 16 16 16 16 16 16 16 15 15 15 15 15 15 15 15 15 15 15 15 15 14 14 14 14 13 13 13 13 13 13 13 13 13 13 13 13
17 17 17 17 17 17 17 16 16 16 16 16 16 15 15 15 15 15 15 15 15 15 15 15 15 15 15 14 14 14 14 14 13 13 13 13 13 13 13 13 13 13 13
17 17 17 17 17 17 17 16 16 16 16 16 16 15 15 15 15 15 15 15 15 15 15 15 15 15 14 14 14 14 14 14 14 13 12 12 12 12 12 12 12 12 12
17 17 17 17 17 16 16 16 16 16 16 16 15 15 15 15 15 15 15 15 15 15 15 15 15 15 14 14 14 14 14 14 14 13 13 12 12 12 12 12 12 12 12
17 17 17 17 16 16 16 16 16 16 16 15 15 15 15 15 15 15 15 15 15 15 15 15 15 14 14 14 14 14 14 14 14 14 13 13 12 12 12 12 12 12 12
Wind_Speed
1 2 2 6 7 8 8 9 9 10 11 11 12 12 12 12 11 11 11 11 11 11 11 10 10 11 10 10 9 9 9 9 10 9 9 9 9 9 9 10 10 8 10
1 1 3 6 7 8 9 9 9 10 10 11 11 12 11 11 11 11 10 10 10 10 11 11 11 11 11 10 9 9 9 9 10 10 10 9 8 9 10 10 10 9 10
2 2 4 6 7 8 9 9 9 10 11 11 11 11 11 10 10 10 10 10 10 11 11 11 11 12 11 10 10 9 10 10 11 11 10 9 8 9 9 10 10 10 10
3 4 3 6 7 8 9 10 10 10 10 10 11 11 10 10 10 10 10 10 11 11 11 12 12 12 12 12 12 13 13 12 12 11 9 8 7 9 10 10 10 10 10
4 4 4 7 8 8 9 10 10 10 10 10 10 10 10 9 10 10 10 10 10 11 11 11 11 12 12 13 13 13 13 13 12 11 9 9 8 8 10 10 9 9 9
3 4 5 8 8 9 9 9 9 9 9 9 9 9 8 8 9 9 10 10 10 10 10 11 11 12 12 13 13 13 13 13 11 10 9 8 7 8 9 9 9 9 9
3 4 5 8 8 8 8 9 9 9 8 8 8 8 8 8 8 9 9 9 9 10 10 10 11 12 12 12 13 13 13 12 10 9 8 7 7 8 9 9 9 10 9
3 4 5 7 8 8 8 8 8 8 8 8 8 8 7 8 8 8 8 8 8 9 9 10 11 12 12 12 12 12 12 11 9 8 7 7 7 8 9 9 10 10 9
4 5 5 6 6 7 7 7 6 7 7 7 7 7 7 7 7 7 7 7 7 8 9 10 10 11 12 12 13 13 13 12 10 7 7 7 8 9 10 10 11 10 10
3 3 3 5 6 6 5 5 6 7 7 7 7 7 7 7 7 7 6 7 7 8 8 9 10 11 12 13 13 13 13 11 10 9 7 8 10 10 10 11 11 11 11
2 2 2 2 4 5 5 5 6 7 7 7 7 7 7 6 6 6 6 7 8 8 9 9 10 11 12 12 13 13 12 10 9 9 8 9 10 11 11 11 11 11 11
1 0 1 1 2 3 4 6 6 6 7 7 6 6 6 6 6 6 8 8 9 9 10 11 11 11 11 11 11 12 11 11 10 9 9 10 11 11 11 11 11 11 11
2 1 1 1 2 2 3 4 4 4 5 6 5 5 6 6 6 7 7 8 8 9 9 10 10 10 11 10 10 10 11 10 9 9 11 12 11 11 11 11 11 11 10
2 2 2 3 2 2 3 3 3 3 3 4 4 4 5 4 4 5 5 6 6 6 8 8 8 10 11 12 11 10 11 10 10 10 12 14 13 11 11 11 11 11 10
3 3 2 3 3 2 3 2 3 3 3 3 4 4 4 4 3 4 4 5 6 7 8 8 8 8 9 9 10 10 10 10 11 11 12 15 15 13 12 12 12 11 11
4 3 3 3 3 4 3 2 2 3 3 4 3 4 5 4 4 4 4 5 6 7 8 8 8 7 7 7 8 9 10 10 11 12 12 14 17 16 14 13 12 12 12
4 3 4 4 4 4 3 3 3 3 4 3 3 4 4 5 5 5 4 4 5 8 9 9 8 7 6 6 7 8 9 10 11 12 12 13 13 16 16 15 15 14 12
4 4 3 4 4 4 4 3 3 4 5 4 4 4 5 5 6 6 4 3 6 8 7 6 5 6 5 5 6 6 7 8 10 11 12 12 12 13 15 17 16 15 14
6 5 4 4 4 4 4 4 4 5 5 4 5 4 4 5 6 6 4 4 6 6 5 5 4 4 5 5 5 6 5 6 7 9 10 11 12 13 12 14 16 16 15
5 5 4 4 4 5 4 4 3 4 3 4 5 4 5 5 6 6 5 5 6 5 4 4 5 4 4 5 7 7 5 5 6 7 7 9 10 12 13 13 13 13 16
5 5 5 5 4 4 3 3 3 1 1 2 3 5 5 5 5 6 4 4 4 4 4 5 5 5 4 3 4 4 5 5 6 5 6 7 8 10 12 12 12 12 12
5 5 5 5 5 5 3 3 2 2 1 1 2 4 5 5 5 5 5 4 4 4 5 4 4 3 2 2 3 3 2 4 4 5 5 5 6 8 9 11 12 12 12
6 6 5 5 5 5 5 4 3 3 3 2 2 2 3 4 5 5 5 5 4 4 4 3 3 4 3 1 2 3 3 2 1 3 5 5 5 5 7 9 10 11 12
6 5 5 4 4 4 5 5 5 4 2 1 0 0 2 4 4 5 5 5 4 3 3 3 2 2 4 2 1 2 2 3 3 1 3 4 5 6 6 7 8 9 11
6 6 5 5 3 3 4 5 5 4 3 2 1 2 2 3 3 4 5 5 4 3 3 2 2 2 2 3 2 2 3 3 3 3 1 2 3 4 4 5 6 8 9
5 5 5 5 4 3 4 4 5 5 5 4 3 2 1 1 2 3 4 4 4 3 3 2 2 3 2 3 2 2 3 3 2 3 3 1 1 2 3 4 5 6 7
Wind_Direction
298 294 107 100 95 94 89 85 82 86 91 92 96 96 97 95 93 93 89 86 83 82 80 76 75 75 72 71 69 72 75 79 82 80 77 77 78 78 77 75 76 75 80
192 10 100 105 99 95 92 86 84 90 92 94 97 97 96 95 93 91 88 87 83 82 79 77 77 74 72 73 70 72 76 82 85 78 74 70 73 77 78 78 78 78 77
73 58 94 106 100 97 94 90 87 89 92 95 98 96 94 92 90 90 88 84 82 82 81 78 75 71 68 68 65 66 82 83 80 73 65 54 61 74 76 78 79 80 79
82 65 86 107 101 98 94 93 92 92 93 95 98 96 93 91 88 88 85 82 81 83 82 77 71 68 65 65 65 70 79 79 76 71 58 50 53 72 76 76 78 81 82
74 65 88 104 101 97 94 92 93 94 94 95 95 96 94 90 89 88 83 80 80 83 83 78 72 68 67 68 69 72 76 75 73 64 56 51 51 71 73 73 76 82 82
74 70 92 98 99 95 95 94 93 95 94 92 91 92 92 91 90 89 81 76 77 79 80 77 73 70 68 69 72 75 76 75 68 59 54 51 49 69 73 73 74 81 81
82 68 90 99 97 96 94 93 93 94 93 90 88 85 85 85 88 87 79 74 73 75 75 74 73 70 70 72 74 76 74 72 65 55 49 46 53 67 74 78 76 76 78
92 66 69 92 95 94 91 90 88 88 89 86 84 81 79 79 80 82 77 73 71 73 74 73 71 70 73 77 76 74 69 64 57 51 48 47 62 68 72 77 75 75 76
80 69 55 64 74 80 87 88 86 82 81 77 76 77 74 71 72 72 72 70 69 71 72 72 69 70 74 77 76 73 67 59 51 44 52 53 67 73 73 74 74 75 77
70 64 56 52 59 58 61 79 83 79 75 67 61 64 62 58 56 57 61 63 66 70 72 73 71 73 75 76 74 70 66 55 46 45 50 60 68 72 76 75 75 75 76
77 48 57 46 48 48 52 68 65 63 60 56 52 54 51 45 43 44 50 58 67 73 75 78 76 76 76 73 72 67 61 52 47 45 48 60 67 72 75 76 77 76 74
152 306 91 77 55 49 55 61 56 52 52 54 50 49 50 48 41 48 50 56 62 68 73 79 80 78 76 71 67 63 56 51 46 40 45 57 63 69 73 74 76 73 72
194 204 152 130 85 67 55 63 58 54 53 52 50 52 54 52 46 50 50 47 53 61 67 75 77 76 77 73 67 62 55 51 43 39 44 56 61 67 72 71 72 71 71
171 178 168 143 124 94 78 73 75 68 63 56 50 58 69 62 51 56 57 54 60 68 74 76 82 80 78 75 73 66 57 51 43 40 44 52 56 61 68 69 71 70 73
169 174 175 149 136 119 98 79 78 76 80 77 69 67 82 83 74 72 68 68 72 79 82 84 85 81 76 73 72 67 57 52 48 45 42 49 52 57 64 66 68 68 71
170 174 164 145 136 128 120 104 85 83 79 75 72 85 98 99 94 85 73 75 79 86 89 90 88 85 79 76 70 65 59 54 50 48 45 44 47 50 58 62 62 64 66
174 162 157 151 131 129 124 111 95 84 82 78 80 97 110 113 105 97 88 84 87 97 97 92 85 82 82 77 68 64 61 56 53 50 48 45 43 43 49 55 58 60 61
162 155 156 154 136 129 118 106 91 83 81 78 86 96 107 114 117 108 101 95 98 101 100 97 88 86 78 74 69 61 59 55 54 53 50 46 45 43 41 49 53 55 59
166 153 143 138 133 129 117 101 88 82 77 76 81 84 99 106 114 113 108 104 108 103 99 105 87 93 93 84 80 68 59 55 50 53 49 46 46 46 43 45 48 50 54
154 144 142 137 129 120 106 91 74 61 55 60 66 71 83 97 109 109 108 107 111 104 94 97 96 82 88 93 88 74 59 55 52 47 46 47 47 47 47 45 43 42 46
145 145 152 153 148 132 116 115 108 94 50 47 57 64 73 88 104 109 114 110 114 113 118 115 107 96 85 92 88 72 51 51 52 43 42 44 45 45 46 45 45 44 42
167 164 161 164 160 159 152 141 132 123 96 63 49 54 60 77 92 111 118 120 119 113 110 116 118 115 104 84 107 103 66 30 31 38 38 44 39 42 44 45 45 44 45
176 177 175 173 166 165 150 120 93 71 53 40 31 22 30 71 89 105 117 122 121 127 139 142 140 131 138 75 76 125 128 158 34 19 34 39 35 38 36 40 42 41 44
190 179 170 167 161 154 150 151 148 141 148 184 156 38 35 63 84 99 110 116 120 126 135 152 143 133 136 136 79 62 100 138 137 78 13 24 34 39 34 37 36 38 42
180 172 168 158 155 148 152 160 152 146 154 137 101 79 46 40 64 86 102 109 114 122 134 127 120 117 127 139 140 123 94 74 93 131 123 8 21 22 29 33 33 35 38
169 165 164 164 167 161 159 158 159 159 154 145 144 131 86 44 39 64 90 103 109 116 127 133 122 114 115 118 121 128 142 140 148 134 142 144 32 352 14 27 28 26 34
Height
1526 1526 1526 1526 1525 1525 1525 1525 1524 1524 1524 1524 1524 1524 1525 1525 1526 1526 1527 1527 1527 1527 1527 1527 1528 1528 1528 1528 1528 1528 1528 1528 1528 1529 1529 1529 1529 1529 1529 1529 1529 1529 1529
1527 1527 1527 1527 1527 1526 1526 1526 1525 1525 1525 1525 1526 1526 1526 1527 1527 1528 1528 1528 1528 1528 1529 1529 1529 1529 1529 1529 1529 1528 1529 1529 1529 1530 1530 1530 1530 1530 1530 1530 1530 1530 1530
1528 1528 1528 1528 1528 1528 1527 1527 1527 1527 1527 1527 1527 1527 1528 1528 1529 1529 1530 1530 1530 1530 1530 1530 1531 1531 1531 1530 1529 1526 1527 1530 1530 1531 1532 1532 1532 1532 1532 1532 1532 1532 1532
1529 1529 1529 1529 1529 1529 1529 1529 1529 1528 1528 1529 1529 1529 1529 1530 1530 1531 1531 1531 1532 1532 1532 1532 1532 1532 1532 1532 1530 1527 1528 1531 1532 1533 1533 1533 1533 1533 1533 1534 1534 1534 1534
1530 1530 1530 1531 1530 1531 1531 1530 1530 1530 1530 1531 1531 1531 1531 1532 1532 1532 1533 1533 1533 1533 1534 1534 1534 1534 1534 1534 1533 1532 1532 1533 1534 1534 1534 1535 1535 1535 1535 1535 1535 1535 1535
1531 1531 1532 1532 1532 1532 1532 1532 1532 1532 1532 1533 1533 1533 1534 1534 1534 1534 1535 1535 1535 1535 1535 1536 1536 1536 1536 1536 1535 1535 1535 1535 1535 1536 1536 1536 1536 1536 1536 1536 1536 1536 1536
1533 1533 1533 1533 1534 1534 1534 1534 1534 1535 1535 1535 1535 1535 1536 1536 1536 1536 1536 1537 1537 1537 1537 1537 1537 1538 1538 1538 1537 1537 1537 1537 1537 1537 1537 1537 1537 1537 1537 1537 1537 1538 1538
1535 1535 1535 1535 1535 1535 1536 1536 1536 1536 1537 1537 1537 1537 1537 1538 1538 1538 1538 1538 1539 1538 1539 1539 1539 1539 1539 1539 1539 1539 1538 1538 1538 1538 1538 1538 1538 1538 1538 1539 1539 1538 1539
1536 1537 1537 1537 1537 1537 1538 1538 1538 1538 1539 1539 1539 1539 1539 1539 1540 1540 1540 1540 1540 1540 1540 1541 1541 1541 1541 1541 1541 1540 1540 1540 1540 1539 1539 1539 1539 1539 1539 1540 1540 1540 1540
1538 1538 1539 1539 1539 1539 1540 1540 1540 1541 1541 1541 1541 1541 1541 1541 1541 1541 1542 1542 1541 1542 1542 1542 1542 1542 1542 1542 1542 1542 1542 1541 1541 1541 1541 1541 1541 1541 1541 1541 1541 1541 1541
1539 1540 1540 1541 1541 1542 1542 1542 1542 1543 1543 1543 1543 1543 1543 1543 1543 1543 1543 1543 1543 1543 1543 1543 1544 1544 1543 1543 1543 1543 1543 1543 1543 1542 1542 1542 1542 1542 1542 1542 1542 1542 1542
1541 1542 1542 1543 1543 1544 1544 1544 1544 1544 1544 1544 1544 1545 1545 1545 1545 1544 1544 1544 1544 1544 1545 1545 1545 1545 1545 1545 1545 1545 1545 1544 1544 1544 1544 1544 1544 1543 1543 1543 1543 1543 1543
1542 1543 1544 1544 1545 1545 1546 1546 1546 1546 1546 1546 1546 1546 1546 1546 1546 1546 1546 1546 1546 1546 1546 1546 1547 1546 1546 1546 1546 1546 1546 1546 1546 1546 1545 1545 1545 1545 1545 1544 1544 1544 1544
1543 1544 1545 1546 1546 1547 1547 1547 1548 1548 1548 1548 1548 1548 1548 1548 1547 1547 1548 1547 1547 1547 1548 1548 1548 1548 1548 1548 1548 1548 1548 1548 1548 1547 1547 1547 1547 1546 1546 1546 1546 1545 1545
1544 1545 1546 1547 1547 1548 1548 1549 1549 1549 1549 1549 1549 1549 1549 1549 1549 1549 1549 1549 1549 1549 1549 1549 1550 1549 1549 1549 1550 1550 1549 1549 1549 1549 1549 1548 1548 1548 1547 1547 1547 1546 1546
1544 1545 1547 1547 1548 1549 1549 1550 1550 1550 1550 1550 1550 1551 1551 1551 1551 1551 1551 1551 1551 1551 1551 1551 1551 1551 1551 1551 1551 1551 1551 1551 1551 1551 1550 1550 1549 1549 1549 1548 1548 1547 1547
1544 1546 1547 1548 1549 1550 1550 1551 1551 1551 1551 1551 1551 1552 1552 1552 1552 1552 1552 1552 1552 1552 1552 1553 1553 1553 1553 1553 1553 1553 1553 1553 1553 1552 1552 1551 1551 1551 1550 1549 1549 1548 1548
1544 1546 1547 1548 1549 1550 1551 1551 1552 1552 1552 1552 1552 1553 1553 1553 1553 1553 1554 1554 1554 1554 1554 1554 1554 1554 1554 1554 1554 1554 1555 1555 1555 1554 1554 1553 1553 1552 1551 1551 1550 1550 1549
1544 1546 1547 1548 1549 1550 1551 1552 1552 1552 1553 1553 1553 1553 1554 1554 1554 1555 1555 1555 1556 1556 1556 1556 1556 1556 1556 1556 1556 1556 1556 1557 1557 1556 1555 1555 1554 1554 1553 1552 1552 1551 1551
1544 1545 1547 1548 1549 1550 1551 1552 1553 1553 1553 1553 1554 1554 1554 1555 1555 1555 1556 1556 1556 1557 1557 1557 1557 1557 1557 1557 1557 1558 1558 1558 1558 1558 1557 1557 1556 1555 1555 1554 1553 1553 1552
1543 1544 1546 1547 1548 1550 1551 1552 1552 1553 1553 1554 1554 1554 1555 1555 1555 1556 1556 1556 1557 1557 1558 1558 1559 1559 1559 1559 1559 1559 1560 1560 1560 1560 1559 1559 1558 1557 1556 1555 1555 1554 1553
1542 1544 1545 1546 1548 1549 1550 1551 1552 1553 1554 1554 1554 1555 1555 1555 1556 1556 1556 1557 1557 1558 1558 1559 1560 1560 1560 1560 1560 1560 1561 1563 1561 1561 1561 1560 1559 1558 1558 1557 1556 1555 1554
1541 1542 1544 1546 1547 1548 1550 1551 1552 1553 1554 1554 1555 1555 1555 1555 1556 1556 1557 1557 1558 1558 1559 1559 1560 1560 1560 1561 1561 1561 1561 1561 1562 1563 1562 1561 1561 1560 1559 1558 1557 1556 1556
1539 1541 1543 1545 1546 1548 1549 1550 1551 1552 1553 1554 1554 1555 1555 1556 1556 1557 1557 1558 1558 1559 1559 1560 1560 1560 1561 1561 1561 1561 1562 1562 1562 1562 1563 1562 1562 1561 1560 1559 1559 1558 1557
1538 1540 1542 1544 1545 1547 1548 1550 1551 1551 1552 1553 1554 1554 1555 1555 1556 1556 1557 1557 1558 1559 1559 1560 1560 1560 1561 1561 1561 1561 1561 1561 1562 1562 1562 1563 1563 1562 1561 1561 1560 1559 1559
1537 1539 1541 1542 1544 1546 1547 1548 1550 1551 1552 1552 1553 1554 1554 1555 1555 1556 1557 1557 1558 1558 1559 1559 1560 1560 1560 1560 1560 1561 1561 1561 1561 1561 1562 1562 1562 1562 1562 1561 1561 1560 1560